Location: Bagong Pook
(14.2541°N, 120.8791°E)
Time: 02:15:45
(UTC+00:00)

Intelsat 5-3 Rocket - Pass Details

Date: 13 January 2026
Orbit: 280 x 4775 km, 23.5° (Epoch: 16 February)

Event Time Altitude Azimuth Distance (km) Brightness Sun altitude
Rises 10:15:45 0° 280° (W) 6,724 9.0 -7.6°
Reaches altitude 10° 10:21:49 10° 286° (WNW) 4,842 8.0 -8.9°
Maximum altitude 10:32:43 41° 352° (N) 1,618 4.6 -11.4°
Enters shadow 10:36:49 16° 57° (ENE) 1,970 4.5 -12.4°
